Year,Month,Day,Hour,Minute,Value (Times are PST for temperature in C)
2015,02,16,00,00,2.20
2015,02,16,00,01,2.20
2015,02,16,00,02,2.20
2015,02,16,00,03,2.20
2015,02,16,00,04,2.20
2015,02,16,00,05,2.20
2015,02,16,00,06,2.20
2015,02,16,00,07,2.20
2015,02,16,00,08,2.20
2015,02,16,00,09,2.20
2015,02,16,00,10,2.20
2015,02,16,00,11,2.20
2015,02,16,00,12,2.20
2015,02,16,00,13,2.20
2015,02,16,00,14,2.20
2015,02,16,00,15,2.20
2015,02,16,00,16,2.20
2015,02,16,00,17,2.20
2015,02,16,00,18,2.20
2015,02,16,00,19,2.20
2015,02,16,00,20,2.20
2015,02,16,00,21,2.20
2015,02,16,00,22,2.20
2015,02,16,00,23,2.20
2015,02,16,00,24,2.20
2015,02,16,00,25,2.20
2015,02,16,00,26,2.20
2015,02,16,00,27,2.20
2015,02,16,00,28,2.20
2015,02,16,00,29,2.10
2015,02,16,00,30,2.10
2015,02,16,00,31,2.10
2015,02,16,00,32,2.10
2015,02,16,00,33,2.10
2015,02,16,00,34,2.10
2015,02,16,00,35,2.00
2015,02,16,00,36,2.00
2015,02,16,00,37,2.00
2015,02,16,00,38,2.00
2015,02,16,00,39,2.00
2015,02,16,00,40,2.00
2015,02,16,00,41,2.00
2015,02,16,00,42,2.00
2015,02,16,00,43,2.10
2015,02,16,00,44,2.10
2015,02,16,00,45,2.10
2015,02,16,00,46,2.10
2015,02,16,00,47,2.10
2015,02,16,00,48,2.10
2015,02,16,00,49,2.10
2015,02,16,00,50,2.10
2015,02,16,00,51,2.10
2015,02,16,00,52,2.10
2015,02,16,00,53,2.10
2015,02,16,00,54,2.10
2015,02,16,00,55,2.10
2015,02,16,00,56,2.10
2015,02,16,00,57,2.10
2015,02,16,00,58,2.10
2015,02,16,00,59,2.10
2015,02,16,01,00,2.10
2015,02,16,01,01,2.20
2015,02,16,01,02,2.20
2015,02,16,01,03,2.20
2015,02,16,01,04,2.20
2015,02,16,01,05,2.20
2015,02,16,01,06,2.20
2015,02,16,01,07,2.20
2015,02,16,01,08,2.20
2015,02,16,01,09,2.20
2015,02,16,01,10,2.20
2015,02,16,01,11,2.20
2015,02,16,01,12,2.20
2015,02,16,01,13,2.20
2015,02,16,01,14,2.20
2015,02,16,01,15,2.20
2015,02,16,01,16,2.30
2015,02,16,01,17,2.30
2015,02,16,01,18,2.30
2015,02,16,01,19,2.30
2015,02,16,01,20,2.30
2015,02,16,01,21,2.30
2015,02,16,01,22,2.30
2015,02,16,01,23,2.30
2015,02,16,01,24,2.30
2015,02,16,01,25,2.30
2015,02,16,01,26,2.30
2015,02,16,01,27,2.30
2015,02,16,01,28,2.30
2015,02,16,01,29,2.30
2015,02,16,01,30,2.40
2015,02,16,01,31,2.40
2015,02,16,01,32,2.40
2015,02,16,01,33,2.40
2015,02,16,01,34,2.40
2015,02,16,01,35,2.40
2015,02,16,01,36,2.30
2015,02,16,01,37,2.30
2015,02,16,01,38,2.40
2015,02,16,01,39,2.40
2015,02,16,01,40,2.40
2015,02,16,01,41,2.40
2015,02,16,01,42,2.50
2015,02,16,01,43,2.50
2015,02,16,01,44,2.50
2015,02,16,01,45,2.50
2015,02,16,01,46,2.50
2015,02,16,01,47,2.60
2015,02,16,01,48,2.60
2015,02,16,01,49,2.70
2015,02,16,01,50,2.70
2015,02,16,01,51,2.70
2015,02,16,01,52,2.60
2015,02,16,01,53,2.60
2015,02,16,01,54,2.70
2015,02,16,01,55,2.70
2015,02,16,01,56,2.70
2015,02,16,01,57,2.70
2015,02,16,01,58,2.70
2015,02,16,01,59,2.70
2015,02,16,02,00,2.70
2015,02,16,02,01,2.70
2015,02,16,02,02,2.70
2015,02,16,02,03,2.70
2015,02,16,02,04,2.80
2015,02,16,02,05,2.80
2015,02,16,02,06,2.80
2015,02,16,02,07,2.80
2015,02,16,02,08,2.80
2015,02,16,02,09,2.80
2015,02,16,02,10,2.80
2015,02,16,02,11,2.80
2015,02,16,02,12,2.80
2015,02,16,02,13,2.80
2015,02,16,02,14,2.80
2015,02,16,02,15,2.80
2015,02,16,02,16,2.80
2015,02,16,02,17,2.80
2015,02,16,02,18,2.80
2015,02,16,02,19,2.70
2015,02,16,02,20,2.70
2015,02,16,02,21,2.70
2015,02,16,02,22,2.70
2015,02,16,02,23,2.70
2015,02,16,02,24,2.70
2015,02,16,02,25,2.70
2015,02,16,02,26,2.80
2015,02,16,02,27,2.80
2015,02,16,02,28,2.80
2015,02,16,02,29,2.90
2015,02,16,02,30,2.90
2015,02,16,02,31,2.90
2015,02,16,02,32,2.90
2015,02,16,02,33,2.90
2015,02,16,02,34,2.90
2015,02,16,02,35,2.90
2015,02,16,02,36,2.90
2015,02,16,02,37,2.90
2015,02,16,02,38,2.90
2015,02,16,02,39,2.90
2015,02,16,02,40,2.90
2015,02,16,02,41,2.90
2015,02,16,02,42,2.90
2015,02,16,02,43,2.90
2015,02,16,02,44,2.90
2015,02,16,02,45,2.90
2015,02,16,02,46,2.90
2015,02,16,02,47,2.90
2015,02,16,02,48,2.90
2015,02,16,02,49,2.90
2015,02,16,02,50,2.90
2015,02,16,02,51,2.90
2015,02,16,02,52,2.90
2015,02,16,02,53,2.90
2015,02,16,02,54,2.90
2015,02,16,02,55,2.90
2015,02,16,02,56,2.90
2015,02,16,02,57,2.90
2015,02,16,02,58,2.90
2015,02,16,02,59,2.90
2015,02,16,03,00,2.90
2015,02,16,03,01,2.90
2015,02,16,03,02,2.90
2015,02,16,03,03,2.90
2015,02,16,03,04,2.90
2015,02,16,03,05,2.90
2015,02,16,03,06,2.90
2015,02,16,03,07,2.90
2015,02,16,03,08,2.90
2015,02,16,03,09,2.90
2015,02,16,03,10,2.90
2015,02,16,03,11,2.90
2015,02,16,03,12,2.90
2015,02,16,03,13,2.90
2015,02,16,03,14,3.00
2015,02,16,03,15,3.10
2015,02,16,03,16,3.10
2015,02,16,03,17,3.10
2015,02,16,03,18,3.10
2015,02,16,03,19,3.10
2015,02,16,03,20,3.10
2015,02,16,03,21,3.10
2015,02,16,03,22,3.10
2015,02,16,03,23,3.10
2015,02,16,03,24,3.10
2015,02,16,03,25,3.10
2015,02,16,03,26,3.10
2015,02,16,03,27,3.20
2015,02,16,03,28,3.30
2015,02,16,03,29,3.30
2015,02,16,03,30,3.40
2015,02,16,03,31,3.50
2015,02,16,03,32,3.60
2015,02,16,03,33,3.60
2015,02,16,03,34,3.60
2015,02,16,03,35,3.50
2015,02,16,03,36,3.50
2015,02,16,03,37,3.40
2015,02,16,03,38,3.40
2015,02,16,03,39,3.40
2015,02,16,03,40,3.40
2015,02,16,03,41,3.30
2015,02,16,03,42,3.30
2015,02,16,03,43,3.30
2015,02,16,03,44,3.30
2015,02,16,03,45,3.30
2015,02,16,03,46,3.20
2015,02,16,03,47,3.20
2015,02,16,03,48,3.20
2015,02,16,03,49,3.20
2015,02,16,03,50,3.10
2015,02,16,03,51,3.10
2015,02,16,03,52,3.10
2015,02,16,03,53,3.10
2015,02,16,03,54,3.10
2015,02,16,03,55,3.10
2015,02,16,03,56,3.10
2015,02,16,03,57,3.10
2015,02,16,03,58,3.10
2015,02,16,03,59,3.10
2015,02,16,04,00,3.10
2015,02,16,04,01,3.10
2015,02,16,04,02,3.10
2015,02,16,04,03,3.10
2015,02,16,04,04,3.10
2015,02,16,04,05,3.10
2015,02,16,04,06,3.10
2015,02,16,04,07,3.10
2015,02,16,04,08,3.10
2015,02,16,04,09,3.10
2015,02,16,04,10,3.10
2015,02,16,04,11,3.10
2015,02,16,04,12,3.10
2015,02,16,04,13,3.10
2015,02,16,04,14,3.10
2015,02,16,04,15,3.10
2015,02,16,04,16,3.10
2015,02,16,04,17,3.10
2015,02,16,04,18,3.10
2015,02,16,04,19,3.00
2015,02,16,04,20,2.90
2015,02,16,04,21,2.90
2015,02,16,04,22,2.90
2015,02,16,04,23,2.90
2015,02,16,04,24,2.90
2015,02,16,04,25,2.90
2015,02,16,04,26,2.90
2015,02,16,04,27,2.90
2015,02,16,04,28,2.90
2015,02,16,04,29,2.90
2015,02,16,04,30,2.90
2015,02,16,04,31,2.90
2015,02,16,04,32,2.90
2015,02,16,04,33,2.90
2015,02,16,04,34,2.90
2015,02,16,04,35,2.90
2015,02,16,04,36,2.90
2015,02,16,04,37,2.90
2015,02,16,04,38,2.90
2015,02,16,04,39,2.90
2015,02,16,04,40,2.90
2015,02,16,04,41,3.00
2015,02,16,04,42,3.10
2015,02,16,04,43,3.10
2015,02,16,04,44,3.10
2015,02,16,04,45,3.10
2015,02,16,04,46,3.10
2015,02,16,04,47,3.10
2015,02,16,04,48,3.10
2015,02,16,04,49,3.10
2015,02,16,04,50,3.10
2015,02,16,04,51,3.00
2015,02,16,04,52,2.90
2015,02,16,04,53,2.90
2015,02,16,04,54,2.90
2015,02,16,04,55,2.90
2015,02,16,04,56,2.90
2015,02,16,04,57,2.90
2015,02,16,04,58,2.90
2015,02,16,04,59,3.00
2015,02,16,05,00,3.10
2015,02,16,05,01,3.10
2015,02,16,05,02,3.10
2015,02,16,05,03,3.10
2015,02,16,05,04,3.10
2015,02,16,05,05,3.10
2015,02,16,05,06,3.10
2015,02,16,05,07,3.10
2015,02,16,05,08,3.10
2015,02,16,05,09,3.10
2015,02,16,05,10,3.10
2015,02,16,05,11,3.00
2015,02,16,05,12,2.90
2015,02,16,05,13,2.90
2015,02,16,05,14,2.90
2015,02,16,05,15,3.00
2015,02,16,05,16,3.10
2015,02,16,05,17,3.00
2015,02,16,05,18,2.90
2015,02,16,05,19,3.00
2015,02,16,05,20,3.10
2015,02,16,05,21,3.10
2015,02,16,05,22,3.10
2015,02,16,05,23,3.10
2015,02,16,05,24,3.00
2015,02,16,05,25,2.90
2015,02,16,05,26,2.90
2015,02,16,05,27,2.90
2015,02,16,05,28,3.00
2015,02,16,05,29,3.10
2015,02,16,05,30,3.10
2015,02,16,05,31,3.10
2015,02,16,05,32,3.10
2015,02,16,05,33,3.10
2015,02,16,05,34,3.10
2015,02,16,05,35,3.00
2015,02,16,05,36,3.00
2015,02,16,05,37,3.00
2015,02,16,05,38,3.10
2015,02,16,05,39,3.10
2015,02,16,05,40,3.10
2015,02,16,05,41,3.10
2015,02,16,05,42,3.10
2015,02,16,05,43,3.10
2015,02,16,05,44,3.10
2015,02,16,05,45,3.10
2015,02,16,05,46,3.10
2015,02,16,05,47,3.10
2015,02,16,05,48,3.10
2015,02,16,05,49,3.10
2015,02,16,05,50,3.10
2015,02,16,05,51,3.10
2015,02,16,05,52,3.10
2015,02,16,05,53,3.10
2015,02,16,05,54,3.10
2015,02,16,05,55,3.10
2015,02,16,05,56,3.10
2015,02,16,05,57,3.10
2015,02,16,05,58,3.10
2015,02,16,05,59,3.10
2015,02,16,06,00,3.10
2015,02,16,06,01,3.10
2015,02,16,06,02,3.10
2015,02,16,06,03,3.10
2015,02,16,06,04,3.10
2015,02,16,06,05,3.10
2015,02,16,06,06,3.10
2015,02,16,06,07,3.10
2015,02,16,06,08,3.10
2015,02,16,06,09,3.10
2015,02,16,06,10,3.10
2015,02,16,06,11,3.10
2015,02,16,06,12,3.10
2015,02,16,06,13,3.10
2015,02,16,06,14,3.10
2015,02,16,06,15,3.10
2015,02,16,06,16,3.10
2015,02,16,06,17,3.10
2015,02,16,06,18,3.10
2015,02,16,06,19,3.10
2015,02,16,06,20,3.10
2015,02,16,06,21,3.20
2015,02,16,06,22,3.10
2015,02,16,06,23,3.20
2015,02,16,06,24,3.20
2015,02,16,06,25,3.20
2015,02,16,06,26,3.20
2015,02,16,06,27,3.20
2015,02,16,06,28,3.20
2015,02,16,06,29,3.20
2015,02,16,06,30,3.20
2015,02,16,06,31,3.20
2015,02,16,06,32,3.20
2015,02,16,06,33,3.20
2015,02,16,06,34,3.10
2015,02,16,06,35,3.10
2015,02,16,06,36,3.10
2015,02,16,06,37,3.20
2015,02,16,06,38,3.30
2015,02,16,06,39,3.30
2015,02,16,06,40,3.30
2015,02,16,06,41,3.30
2015,02,16,06,42,3.30
2015,02,16,06,43,3.30
2015,02,16,06,44,3.30
2015,02,16,06,45,3.30
2015,02,16,06,46,3.30
2015,02,16,06,47,3.30
2015,02,16,06,48,3.30
2015,02,16,06,49,3.30
2015,02,16,06,50,3.30
2015,02,16,06,51,3.30
2015,02,16,06,52,3.30
2015,02,16,06,53,3.30
2015,02,16,06,54,3.30
2015,02,16,06,55,3.40
2015,02,16,06,56,3.40
2015,02,16,06,57,3.50
2015,02,16,06,58,3.50
2015,02,16,06,59,3.50
2015,02,16,07,00,3.50
2015,02,16,07,01,3.50
2015,02,16,07,02,3.50
2015,02,16,07,03,3.50
2015,02,16,07,04,3.50
2015,02,16,07,05,3.50
2015,02,16,07,06,3.50
2015,02,16,07,07,3.50
2015,02,16,07,08,3.50
2015,02,16,07,09,3.40
2015,02,16,07,10,3.40
2015,02,16,07,11,3.40
2015,02,16,07,12,3.40
2015,02,16,07,13,3.40
2015,02,16,07,14,3.40
2015,02,16,07,15,3.30
2015,02,16,07,16,3.30
2015,02,16,07,17,3.30
2015,02,16,07,18,3.30
2015,02,16,07,19,3.30
2015,02,16,07,20,3.30
2015,02,16,07,21,3.30
2015,02,16,07,22,3.30
2015,02,16,07,23,3.30
2015,02,16,07,24,3.30
2015,02,16,07,25,3.30
2015,02,16,07,26,3.30
2015,02,16,07,27,3.30
2015,02,16,07,28,3.30
2015,02,16,07,29,3.30
2015,02,16,07,30,3.30
2015,02,16,07,31,3.30
2015,02,16,07,32,3.30
2015,02,16,07,33,3.30
2015,02,16,07,34,3.30
2015,02,16,07,35,3.30
2015,02,16,07,36,3.30
2015,02,16,07,37,3.30
2015,02,16,07,38,3.30
2015,02,16,07,39,3.30
2015,02,16,07,40,3.30
2015,02,16,07,41,3.30
2015,02,16,07,42,3.30
2015,02,16,07,43,3.30
2015,02,16,07,44,3.30
2015,02,16,07,45,3.30
2015,02,16,07,46,3.30
2015,02,16,07,47,3.30
2015,02,16,07,48,3.30
2015,02,16,07,49,3.20
2015,02,16,07,50,3.20
2015,02,16,07,51,3.20
2015,02,16,07,52,3.20
2015,02,16,07,53,3.20
2015,02,16,07,54,3.20
2015,02,16,07,55,3.20
2015,02,16,07,56,3.10
2015,02,16,07,57,3.10
2015,02,16,07,58,3.10
2015,02,16,07,59,3.10
2015,02,16,08,00,3.10
2015,02,16,08,01,3.10
2015,02,16,08,02,3.10
2015,02,16,08,03,3.10
2015,02,16,08,04,3.10
2015,02,16,08,05,3.10
2015,02,16,08,06,3.10
2015,02,16,08,07,3.10
2015,02,16,08,08,3.10
2015,02,16,08,09,3.10
2015,02,16,08,10,3.10
2015,02,16,08,11,3.10
2015,02,16,08,12,3.10
2015,02,16,08,13,3.10
2015,02,16,08,14,3.10
2015,02,16,08,15,3.10
2015,02,16,08,16,3.10
2015,02,16,08,17,3.10
2015,02,16,08,18,3.10
2015,02,16,08,19,3.10
2015,02,16,08,20,3.10
2015,02,16,08,21,3.10
2015,02,16,08,22,3.10
2015,02,16,08,23,3.10
2015,02,16,08,24,3.10
2015,02,16,08,25,3.10
2015,02,16,08,26,3.10
2015,02,16,08,27,3.10
2015,02,16,08,28,3.10
2015,02,16,08,29,3.10
2015,02,16,08,30,3.10
2015,02,16,08,31,3.10
2015,02,16,08,32,3.10
2015,02,16,08,33,3.10
2015,02,16,08,34,3.10
2015,02,16,08,35,3.10
2015,02,16,08,36,3.10
2015,02,16,08,37,3.10
2015,02,16,08,38,3.10
2015,02,16,08,39,3.10
2015,02,16,08,40,3.20
2015,02,16,08,41,3.20
2015,02,16,08,42,3.20
2015,02,16,08,43,3.30
2015,02,16,08,44,3.30
2015,02,16,08,45,3.30
2015,02,16,08,46,3.30
2015,02,16,08,47,3.40
2015,02,16,08,48,3.40
2015,02,16,08,49,3.40
2015,02,16,08,50,3.50
2015,02,16,08,51,3.50
2015,02,16,08,52,3.50
2015,02,16,08,53,3.60
2015,02,16,08,54,3.60
2015,02,16,08,55,3.70
2015,02,16,08,56,3.80
2015,02,16,08,57,3.80
2015,02,16,08,58,3.80
2015,02,16,08,59,3.90
2015,02,16,09,00,3.90
2015,02,16,09,01,4.00
2015,02,16,09,02,4.00
2015,02,16,09,03,4.10
2015,02,16,09,04,4.20
2015,02,16,09,05,4.20
2015,02,16,09,06,4.30
2015,02,16,09,07,4.40
2015,02,16,09,08,4.50
2015,02,16,09,09,4.60
2015,02,16,09,10,4.60
2015,02,16,09,11,4.70
2015,02,16,09,12,4.80
2015,02,16,09,13,4.90
2015,02,16,09,14,5.00
2015,02,16,09,15,5.10
2015,02,16,09,16,5.20
2015,02,16,09,17,5.30
2015,02,16,09,18,5.50
2015,02,16,09,19,5.60
2015,02,16,09,20,5.70
2015,02,16,09,21,5.70
2015,02,16,09,22,5.80
2015,02,16,09,23,5.90
2015,02,16,09,24,6.00
2015,02,16,09,25,6.10
2015,02,16,09,26,6.20
2015,02,16,09,27,6.40
2015,02,16,09,28,6.50
2015,02,16,09,29,6.70
2015,02,16,09,30,6.80
2015,02,16,09,31,6.80
2015,02,16,09,32,6.90
2015,02,16,09,33,7.00
2015,02,16,09,34,7.00
2015,02,16,09,35,7.10
2015,02,16,09,36,7.20
2015,02,16,09,37,7.20
2015,02,16,09,38,7.20
2015,02,16,09,39,7.30
2015,02,16,09,40,7.30
2015,02,16,09,41,7.30
2015,02,16,09,42,7.30
2015,02,16,09,43,7.40
2015,02,16,09,44,7.40
2015,02,16,09,45,7.40
2015,02,16,09,46,7.50
2015,02,16,09,47,7.60
2015,02,16,09,48,7.70
2015,02,16,09,49,7.70
2015,02,16,09,50,7.80
2015,02,16,09,51,7.90
2015,02,16,09,52,8.00
2015,02,16,09,53,8.10
2015,02,16,09,54,8.20
2015,02,16,09,55,8.30
2015,02,16,09,56,8.40
2015,02,16,09,57,8.50
2015,02,16,09,58,8.50
2015,02,16,09,59,8.60
2015,02,16,10,00,8.70
2015,02,16,10,01,8.70
2015,02,16,10,02,8.70
2015,02,16,10,03,8.70
2015,02,16,10,04,8.80
2015,02,16,10,05,8.80
2015,02,16,10,06,8.80
2015,02,16,10,07,8.80
2015,02,16,10,08,8.80
2015,02,16,10,09,8.90
2015,02,16,10,10,8.90
2015,02,16,10,11,9.00
2015,02,16,10,12,9.00
2015,02,16,10,13,9.00
2015,02,16,10,14,9.10
2015,02,16,10,15,9.10
2015,02,16,10,16,9.10
2015,02,16,10,17,9.20
2015,02,16,10,18,9.20
2015,02,16,10,19,9.20
2015,02,16,10,20,9.20
2015,02,16,10,21,9.30
2015,02,16,10,22,9.40
2015,02,16,10,23,9.40
2015,02,16,10,24,9.50
2015,02,16,10,25,9.60
2015,02,16,10,26,9.60
2015,02,16,10,27,9.70
2015,02,16,10,28,9.70
2015,02,16,10,29,9.70
2015,02,16,10,30,9.70
2015,02,16,10,31,9.80
2015,02,16,10,32,9.80
2015,02,16,10,33,9.90
2015,02,16,10,34,9.90
2015,02,16,10,35,9.90
2015,02,16,10,36,10.00
2015,02,16,10,37,10.10
2015,02,16,10,38,10.10
2015,02,16,10,39,10.10
2015,02,16,10,40,10.10
2015,02,16,10,41,10.10
2015,02,16,10,42,10.10
2015,02,16,10,43,10.10
2015,02,16,10,44,10.10
2015,02,16,10,45,10.10
2015,02,16,10,46,10.10
2015,02,16,10,47,10.10
2015,02,16,10,48,10.10
2015,02,16,10,49,10.10
2015,02,16,10,50,10.10
2015,02,16,10,51,10.10
2015,02,16,10,52,10.10
2015,02,16,10,53,10.10
2015,02,16,10,54,10.10
2015,02,16,10,55,10.10
2015,02,16,10,56,10.20
2015,02,16,10,57,10.20
2015,02,16,10,58,10.30
2015,02,16,10,59,10.40
2015,02,16,11,00,10.40
2015,02,16,11,01,10.40
2015,02,16,11,02,10.40
2015,02,16,11,03,10.40
2015,02,16,11,04,10.40
2015,02,16,11,05,10.40
2015,02,16,11,06,10.40
2015,02,16,11,07,10.40
2015,02,16,11,08,10.40
2015,02,16,11,09,10.40
2015,02,16,11,10,10.40
2015,02,16,11,11,10.50
2015,02,16,11,12,10.60
2015,02,16,11,13,10.60
2015,02,16,11,14,10.60
2015,02,16,11,15,10.60
2015,02,16,11,16,10.60
2015,02,16,11,17,10.60
2015,02,16,11,18,10.60
2015,02,16,11,19,10.60
2015,02,16,11,20,10.70
2015,02,16,11,21,10.70
2015,02,16,11,22,10.70
2015,02,16,11,23,10.70
2015,02,16,11,24,10.70
2015,02,16,11,25,10.70
2015,02,16,11,26,10.70
2015,02,16,11,27,10.70
2015,02,16,11,28,10.70
2015,02,16,11,29,10.70
2015,02,16,11,30,10.70
2015,02,16,11,31,10.70
2015,02,16,11,32,10.70
2015,02,16,11,33,10.70
2015,02,16,11,34,10.70
2015,02,16,11,35,10.70
2015,02,16,11,36,10.60
2015,02,16,11,37,10.60
2015,02,16,11,38,10.60
2015,02,16,11,39,10.60
2015,02,16,11,40,10.60
2015,02,16,11,41,10.60
2015,02,16,11,42,10.60
2015,02,16,11,43,10.60
2015,02,16,11,44,10.60
2015,02,16,11,45,10.70
2015,02,16,11,46,10.70
2015,02,16,11,47,10.70
2015,02,16,11,48,10.70
2015,02,16,11,49,10.70
2015,02,16,11,50,10.70
2015,02,16,11,51,10.70
2015,02,16,11,52,10.70
2015,02,16,11,53,10.70
2015,02,16,11,54,10.70
2015,02,16,11,55,10.70
2015,02,16,11,56,10.70
2015,02,16,11,57,10.80
2015,02,16,11,58,10.80
2015,02,16,11,59,10.70
2015,02,16,12,00,10.70
2015,02,16,12,01,10.80
2015,02,16,12,02,10.80
2015,02,16,12,03,10.80
2015,02,16,12,04,10.80
2015,02,16,12,05,10.80
2015,02,16,12,06,10.80
2015,02,16,12,07,10.80
2015,02,16,12,08,10.80
2015,02,16,12,09,10.70
2015,02,16,12,10,10.70
2015,02,16,12,11,10.70
2015,02,16,12,12,10.70
2015,02,16,12,13,10.70
2015,02,16,12,14,10.70
2015,02,16,12,15,10.70
2015,02,16,12,16,10.70
2015,02,16,12,17,10.70
2015,02,16,12,18,10.80
2015,02,16,12,19,10.80
2015,02,16,12,20,10.80
2015,02,16,12,21,10.80
2015,02,16,12,22,10.80
2015,02,16,12,23,10.80
2015,02,16,12,24,10.80
2015,02,16,12,25,10.80
2015,02,16,12,26,10.80
2015,02,16,12,27,10.80
2015,02,16,12,28,10.90
2015,02,16,12,29,10.90
2015,02,16,12,30,10.90
2015,02,16,12,31,10.90
2015,02,16,12,32,10.90
2015,02,16,12,33,10.90
2015,02,16,12,34,11.00
2015,02,16,12,35,11.10
2015,02,16,12,36,11.10
2015,02,16,12,37,11.10
2015,02,16,12,38,11.10
2015,02,16,12,39,11.10
2015,02,16,12,40,11.10
2015,02,16,12,41,11.10
2015,02,16,12,42,11.10
2015,02,16,12,43,11.10
2015,02,16,12,44,11.10
2015,02,16,12,45,11.10
2015,02,16,12,46,11.10
2015,02,16,12,47,11.10
2015,02,16,12,48,11.20
2015,02,16,12,49,11.20
2015,02,16,12,50,11.20
2015,02,16,12,51,11.20
2015,02,16,12,52,11.20
2015,02,16,12,53,11.20
2015,02,16,12,54,11.20
2015,02,16,12,55,11.20
2015,02,16,12,56,11.20
2015,02,16,12,57,11.10
2015,02,16,12,58,11.10
2015,02,16,12,59,11.20
2015,02,16,13,00,11.20
2015,02,16,13,01,11.20
2015,02,16,13,02,11.20
2015,02,16,13,03,11.30
2015,02,16,13,04,11.30
2015,02,16,13,05,11.30
2015,02,16,13,06,11.30
2015,02,16,13,07,11.30
2015,02,16,13,08,11.30
2015,02,16,13,09,11.30
2015,02,16,13,10,11.30
2015,02,16,13,11,11.30
2015,02,16,13,12,11.30
2015,02,16,13,13,11.30
2015,02,16,13,14,11.30
2015,02,16,13,15,11.30
2015,02,16,13,16,11.30
2015,02,16,13,17,11.30
2015,02,16,13,18,11.30
2015,02,16,13,19,11.30
2015,02,16,13,20,11.40
2015,02,16,13,21,11.40
2015,02,16,13,22,11.40
2015,02,16,13,23,11.40
2015,02,16,13,24,11.40
2015,02,16,13,25,11.50
2015,02,16,13,26,11.60
2015,02,16,13,27,11.60
2015,02,16,13,28,11.60
2015,02,16,13,29,11.60
2015,02,16,13,30,11.70
2015,02,16,13,31,11.70
2015,02,16,13,32,11.70
2015,02,16,13,33,11.70
2015,02,16,13,34,11.70
2015,02,16,13,35,11.70
2015,02,16,13,36,11.70
2015,02,16,13,37,11.70
2015,02,16,13,38,11.70
2015,02,16,13,39,11.80
2015,02,16,13,40,11.80
2015,02,16,13,41,11.80
2015,02,16,13,42,11.80
2015,02,16,13,43,11.80
2015,02,16,13,44,11.80
2015,02,16,13,45,11.80
2015,02,16,13,46,11.80
2015,02,16,13,47,11.80
2015,02,16,13,48,11.80
2015,02,16,13,49,11.90
2015,02,16,13,50,12.00
2015,02,16,13,51,12.00
2015,02,16,13,52,12.10
2015,02,16,13,53,12.10
2015,02,16,13,54,12.10
2015,02,16,13,55,12.10
2015,02,16,13,56,12.10
2015,02,16,13,57,12.10
2015,02,16,13,58,12.10
2015,02,16,13,59,12.20
2015,02,16,14,00,12.20
2015,02,16,14,01,12.20
2015,02,16,14,02,12.20
2015,02,16,14,03,12.20
2015,02,16,14,04,12.20
2015,02,16,14,05,12.30
2015,02,16,14,06,12.30
2015,02,16,14,07,12.30
2015,02,16,14,08,12.20
2015,02,16,14,09,12.20
2015,02,16,14,10,12.20
2015,02,16,14,11,12.20
2015,02,16,14,12,12.20
2015,02,16,14,13,12.20
2015,02,16,14,14,12.20
2015,02,16,14,15,12.20
2015,02,16,14,16,12.20
2015,02,16,14,17,12.20
2015,02,16,14,18,12.20
2015,02,16,14,19,12.20
2015,02,16,14,20,12.20
2015,02,16,14,21,12.20
2015,02,16,14,22,12.20
2015,02,16,14,23,12.20
2015,02,16,14,24,12.20
2015,02,16,14,25,12.20
2015,02,16,14,26,12.20
2015,02,16,14,27,12.20
2015,02,16,14,28,12.10
2015,02,16,14,29,12.10
2015,02,16,14,30,12.00
2015,02,16,14,31,12.00
2015,02,16,14,32,11.90
2015,02,16,14,33,11.90
2015,02,16,14,34,11.90
2015,02,16,14,35,11.90
2015,02,16,14,36,11.80
2015,02,16,14,37,11.80
2015,02,16,14,38,11.80
2015,02,16,14,39,11.80
2015,02,16,14,40,11.80
2015,02,16,14,41,11.80
2015,02,16,14,42,11.80
2015,02,16,14,43,11.80
2015,02,16,14,44,11.80
2015,02,16,14,45,11.80
2015,02,16,14,46,11.80
2015,02,16,14,47,11.80
2015,02,16,14,48,11.80
2015,02,16,14,49,11.80
2015,02,16,14,50,11.80
2015,02,16,14,51,11.80
2015,02,16,14,52,11.80
2015,02,16,14,53,11.80
2015,02,16,14,54,11.80
2015,02,16,14,55,11.80
2015,02,16,14,56,11.70
2015,02,16,14,57,11.70
2015,02,16,14,58,11.70
2015,02,16,14,59,11.70
2015,02,16,15,00,11.70
2015,02,16,15,01,11.70
2015,02,16,15,02,11.70
2015,02,16,15,03,11.70
2015,02,16,15,04,11.70
2015,02,16,15,05,11.70
2015,02,16,15,06,11.70
2015,02,16,15,07,11.70
2015,02,16,15,08,11.70
2015,02,16,15,09,11.70
2015,02,16,15,10,11.70
2015,02,16,15,11,11.60
2015,02,16,15,12,11.60
2015,02,16,15,13,11.60
2015,02,16,15,14,11.60
2015,02,16,15,15,11.60
2015,02,16,15,16,11.60
2015,02,16,15,17,11.60
2015,02,16,15,18,11.60
2015,02,16,15,19,11.60
2015,02,16,15,20,11.60
2015,02,16,15,21,11.60
2015,02,16,15,22,11.60
2015,02,16,15,23,11.60
2015,02,16,15,24,11.60
2015,02,16,15,25,11.60
2015,02,16,15,26,11.60
2015,02,16,15,27,11.50
2015,02,16,15,28,11.40
2015,02,16,15,29,11.40
2015,02,16,15,30,11.40
2015,02,16,15,31,11.40
2015,02,16,15,32,11.40
2015,02,16,15,33,11.40
2015,02,16,15,34,11.40
2015,02,16,15,35,11.40
2015,02,16,15,36,11.40
2015,02,16,15,37,11.40
2015,02,16,15,38,11.40
2015,02,16,15,39,11.40
2015,02,16,15,40,11.40
2015,02,16,15,41,11.40
2015,02,16,15,42,11.40
2015,02,16,15,43,11.40
2015,02,16,15,44,11.40
2015,02,16,15,45,11.40
2015,02,16,15,46,11.40
2015,02,16,15,47,11.40
2015,02,16,15,48,11.40
2015,02,16,15,49,11.40
2015,02,16,15,50,11.40
2015,02,16,15,51,11.30
2015,02,16,15,52,11.30
2015,02,16,15,53,11.30
2015,02,16,15,54,11.30
2015,02,16,15,55,11.30
2015,02,16,15,56,11.30
2015,02,16,15,57,11.30
2015,02,16,15,58,11.30
2015,02,16,15,59,11.30
2015,02,16,16,00,11.30
2015,02,16,16,01,11.30
2015,02,16,16,02,11.30
2015,02,16,16,03,11.30
2015,02,16,16,04,11.30
2015,02,16,16,05,11.20
2015,02,16,16,06,11.20
2015,02,16,16,07,11.20
2015,02,16,16,08,11.20
2015,02,16,16,09,11.20
2015,02,16,16,10,11.20
2015,02,16,16,11,11.20
2015,02,16,16,12,11.10
2015,02,16,16,13,11.10
2015,02,16,16,14,11.10
2015,02,16,16,15,11.10
2015,02,16,16,16,11.10
2015,02,16,16,17,11.10
2015,02,16,16,18,11.10
2015,02,16,16,19,11.10
2015,02,16,16,20,11.10
2015,02,16,16,21,11.10
2015,02,16,16,22,11.10
2015,02,16,16,23,11.10
2015,02,16,16,24,11.00
2015,02,16,16,25,10.90
2015,02,16,16,26,10.90
2015,02,16,16,27,10.90
2015,02,16,16,28,10.90
2015,02,16,16,29,10.90
2015,02,16,16,30,10.90
2015,02,16,16,31,10.90
2015,02,16,16,32,10.90
2015,02,16,16,33,10.90
2015,02,16,16,34,10.90
2015,02,16,16,35,10.90
2015,02,16,16,36,10.90
2015,02,16,16,37,10.90
2015,02,16,16,38,10.90
2015,02,16,16,39,10.90
2015,02,16,16,40,10.80
2015,02,16,16,41,10.80
2015,02,16,16,42,10.80
2015,02,16,16,43,10.80
2015,02,16,16,44,10.80
2015,02,16,16,45,10.80
2015,02,16,16,46,10.80
2015,02,16,16,47,10.70
2015,02,16,16,48,10.70
2015,02,16,16,49,10.60
2015,02,16,16,50,10.60
2015,02,16,16,51,10.60
2015,02,16,16,52,10.50
2015,02,16,16,53,10.40
2015,02,16,16,54,10.40
2015,02,16,16,55,10.40
2015,02,16,16,56,10.40
2015,02,16,16,57,10.30
2015,02,16,16,58,10.30
2015,02,16,16,59,10.20
2015,02,16,17,00,10.20
2015,02,16,17,01,10.10
2015,02,16,17,02,10.10
2015,02,16,17,03,10.10
2015,02,16,17,04,10.10
2015,02,16,17,05,10.00
2015,02,16,17,06,9.90
2015,02,16,17,07,9.90
2015,02,16,17,08,9.90
2015,02,16,17,09,9.90
2015,02,16,17,10,9.80
2015,02,16,17,11,9.80
2015,02,16,17,12,9.70
2015,02,16,17,13,9.70
2015,02,16,17,14,9.70
2015,02,16,17,15,9.70
2015,02,16,17,16,9.70
2015,02,16,17,17,9.60
2015,02,16,17,18,9.60
2015,02,16,17,19,9.50
2015,02,16,17,20,9.40
2015,02,16,17,21,9.30
2015,02,16,17,22,9.30
2015,02,16,17,23,9.20
2015,02,16,17,24,9.10
2015,02,16,17,25,9.00
2015,02,16,17,26,8.90
2015,02,16,17,27,8.90
2015,02,16,17,28,8.90
2015,02,16,17,29,8.80
2015,02,16,17,30,8.80
2015,02,16,17,31,8.70
2015,02,16,17,32,8.70
2015,02,16,17,33,8.60
2015,02,16,17,34,8.60
2015,02,16,17,35,8.50
2015,02,16,17,36,8.50
2015,02,16,17,37,8.40
2015,02,16,17,38,8.40
2015,02,16,17,39,8.30
2015,02,16,17,40,8.30
2015,02,16,17,41,8.20
2015,02,16,17,42,8.20
2015,02,16,17,43,8.20
2015,02,16,17,44,8.10
2015,02,16,17,45,8.10
2015,02,16,17,46,8.00
2015,02,16,17,47,8.00
2015,02,16,17,48,7.90
2015,02,16,17,49,7.80